Location: Chochol
(49.7771°N, 14.9780°E)
Time: 10:29:31
(UTC+00:00)

Cosmos 2218 Rocket - Pass Details

Date: 09 April 2020
Orbit: 957 x 1005 km, 82.9° (Epoch: 24 May)

Event Time Altitude Azimuth Distance (km) Brightness Sun altitude
Rises 19:08:54 0° 352° (N) 3,666 7.6 -13.4°
Reaches altitude 10° 19:11:27 10° 357° (N) 2,720 6.8 -13.8°
Maximum altitude 19:17:36 58° 76° (ENE) 1,134 4.1 -14.6°
Enters shadow 19:22:19 18° 151° (SSE) 2,222 5.4 -15.2°
